Date String (YYYY-MM-DD hh:mm:ss) UTC,Instrument flags,absolute air pressure of the measurement (hPa),sample flow rate (lpm),inlet stack bypass flow (lpm),air temperature of the measurement (°C),ambient temperature measured by the external sensor (°C),aerosol sample conditioner tube jacket temperature (°C),OPC LED temperature (°C),internal box temperature (°C),relative humidity of the measurement (%),span deviation,mass concentration of particles derived from Lorenz-Mie calculation of OPC scattering (μg/m³),mass concentration of particles derived from Lorenz-Mie calculation of OPC scattering (μg/m³),mass concentration of particles derived from Lorenz-Mie calculation of OPC scattering (μg/m³)
DateTimeUTC,F1_M11,P_M11,Q1_M11,Q2_M11,T1_M11,T2_M11,T3_M11,T4_M11,T5_M11,U1_M11,ZSPAN_M11,X2_M11,X0_M11,X1_M11
2023-09-21 12:00:00,SystemResetWarning,0828.4,5.00,000.00,028.8,027.2,000.0,037.2,030.3,16.2,0000.0,0003.22,0009.68,0002.34
2023-09-21 12:01:00,SystemResetWarning,0828.4,5.00,000.00,028.8,027.2,000.0,037.2,030.3,16.3,0000.0,0003.21,0009.89,0002.33
2023-09-21 12:02:00,SystemResetWarning,0828.4,4.99,000.00,028.8,027.2,000.0,037.2,030.3,16.3,0000.0,0003.27,0009.26,0002.35
2023-09-21 12:03:00,SystemResetWarning,0828.4,4.99,000.00,028.8,027.2,000.0,037.2,030.3,16.3,0000.0,0003.25,0009.22,0002.34
2023-09-21 12:04:00,SystemResetWarning,0828.4,5.00,000.00,028.8,027.2,000.0,037.2,030.3,16.1,0000.0,0003.24,0009.52,0002.32
2023-09-21 12:05:00,SystemResetWarning,0828.4,5.00,000.00,028.8,027.2,000.0,037.2,030.3,16.0,0000.0,0003.21,0010.07,0002.28
2023-09-21 12:06:00,SystemResetWarning,0828.4,5.00,000.00,028.8,027.2,000.0,037.2,030.3,15.7,0000.0,0003.15,0009.38,0002.26
2023-09-21 12:07:00,SystemResetWarning,0828.4,5.00,000.00,028.8,027.2,000.0,037.2,030.3,15.6,0000.0,0003.13,0009.25,0002.25
2023-09-21 12:08:00,SystemResetWarning,0828.4,5.01,000.00,028.7,027.2,000.0,037.2,030.3,15.6,0000.0,0003.11,0009.62,0002.22
2023-09-21 12:09:00,SystemResetWarning,0828.4,5.00,000.00,028.7,027.1,000.0,037.2,030.3,15.6,0000.0,0003.06,0009.70,0002.20
2023-09-21 12:10:00,SystemResetWarning,0828.4,4.99,000.00,028.7,027.1,000.0,037.2,030.3,15.8,0000.0,0002.97,0009.37,0002.18
2023-09-21 12:11:00,SystemResetWarning,0828.4,4.99,000.00,028.7,027.1,000.0,037.2,030.3,16.0,0000.0,0002.96,0009.42,0002.17
2023-09-21 12:12:00,SystemResetWarning,0828.4,5.01,000.00,028.7,027.1,000.0,037.2,030.3,15.9,0000.0,0002.93,0009.57,0002.16
2023-09-21 12:13:00,SystemResetWarning,0828.5,5.01,000.00,028.7,027.1,000.0,037.2,030.3,15.7,0000.0,0002.78,0009.52,0002.13
2023-09-21 12:14:00,SystemResetWarning,0828.5,5.00,000.00,028.7,027.1,000.0,037.2,030.3,15.6,0000.0,0002.74,0009.07,0002.10
2023-09-21 12:15:00,SystemResetWarning,0828.6,4.99,000.00,028.7,027.1,000.0,037.2,030.2,15.4,0000.0,0002.78,0008.94,0002.08
2023-09-21 12:16:00,SystemResetWarning,0828.6,4.99,000.00,028.7,027.1,000.0,037.2,030.3,15.2,0000.0,0002.85,0008.26,0002.09
2023-09-21 12:17:00,SystemResetWarning,0828.6,5.01,000.00,028.7,027.1,000.0,037.2,030.3,15.0,0000.0,0002.94,0008.58,0002.08
2023-09-21 12:18:00,SystemResetWarning,0828.6,5.01,000.00,028.7,027.1,000.0,037.2,030.3,14.9,0000.0,0002.95,0008.33,0002.07
2023-09-21 12:19:00,SystemResetWarning,0828.6,4.99,000.00,028.7,027.1,000.0,037.2,030.3,14.9,0000.0,0002.93,0007.89,0002.06
2023-09-21 12:20:00,SystemResetWarning,0828.6,5.00,000.00,028.7,027.1,000.0,037.1,030.3,14.9,0000.0,0002.89,0007.58,0002.04
2023-09-21 12:21:00,SystemResetWarning,0828.6,4.99,000.00,028.7,027.1,000.0,037.2,030.2,14.7,0000.0,0002.89,0006.75,0002.03
2023-09-21 12:22:00,SystemResetWarning,0828.6,5.00,000.00,028.7,027.1,000.0,037.1,030.3,14.7,0000.0,0002.87,0006.55,0002.01
2023-09-21 12:23:00,SystemResetWarning,0828.6,5.00,000.00,028.7,027.1,000.0,037.2,030.2,14.5,0000.0,0002.93,0005.81,0002.02
2023-09-21 12:24:00,SystemResetWarning,0828.6,5.01,000.00,028.7,027.1,000.0,037.2,030.2,14.6,0000.0,0002.96,0005.42,0002.03
2023-09-21 12:25:00,SystemResetWarning,0828.6,5.00,000.00,028.7,027.1,000.0,037.2,030.2,14.6,0000.0,0002.95,0005.47,0002.04
2023-09-21 12:26:00,SystemResetWarning,0828.6,4.99,000.00,028.7,027.1,000.0,037.1,030.2,14.9,0000.0,0002.85,0005.22,0002.05
2023-09-21 12:27:00,SystemResetWarning,0828.6,5.00,000.00,028.7,027.1,000.0,037.1,030.2,15.2,0000.0,0002.74,0005.05,0002.04
2023-09-21 12:28:00,SystemResetWarning,0828.6,5.00,000.00,028.7,027.1,000.0,037.1,030.2,14.7,0000.0,0002.64,0004.42,0002.04
2023-09-21 12:29:00,SystemResetWarning,0828.6,5.01,000.00,028.7,027.1,000.0,037.1,030.2,15.5,0000.0,0002.63,0005.26,0002.03
2023-09-21 12:30:00,SystemResetWarning,0828.6,5.01,000.00,028.7,027.1,000.0,037.1,030.3,15.6,0000.0,0002.59,0006.07,0002.02
2023-09-21 12:31:00,SystemResetWarning,0828.6,4.99,000.00,028.7,027.1,000.0,037.1,030.2,15.8,0000.0,0002.59,0006.10,0002.00
2023-09-21 12:32:00,SystemResetWarning,0828.6,4.99,000.00,028.7,027.1,000.0,037.1,030.2,15.7,0000.0,0002.57,0006.11,0001.97
2023-09-21 12:33:00,SystemResetWarning,0828.6,5.00,000.00,028.7,027.1,000.0,037.1,030.2,15.6,0000.0,0002.51,0006.00,0001.94
2023-09-21 12:34:00,SystemResetWarning,0828.6,4.99,000.00,028.7,027.1,000.0,037.1,030.2,15.9,0000.0,0002.41,0006.68,0001.88
2023-09-21 12:35:00,SystemResetWarning,0828.6,5.01,000.00,028.7,027.1,000.0,037.1,030.2,15.5,0000.0,0002.37,0007.04,0001.83
2023-09-21 12:36:00,SystemResetWarning,0828.6,5.01,000.00,028.7,027.1,000.0,037.1,030.2,14.9,0000.0,0002.28,0006.75,0001.78
2023-09-21 12:37:00,SystemResetWarning,0828.6,5.01,000.00,028.7,027.0,000.0,037.1,030.2,14.9,0000.0,0002.24,0006.61,0001.74
2023-09-21 12:38:00,SystemResetWarning,0828.6,5.00,000.00,028.7,027.0,000.0,037.1,030.2,15.0,0000.0,0002.21,0006.40,0001.70
2023-09-21 12:39:00,SystemResetWarning,0828.5,5.00,000.00,028.7,027.0,000.0,037.1,030.2,14.9,0000.0,0002.22,0006.59,0001.67
2023-09-21 12:40:00,SystemResetWarning,0828.6,4.99,000.00,028.6,027.0,000.0,037.1,030.2,14.9,0000.0,0002.19,0006.58,0001.64
2023-09-21 12:41:00,SystemResetWarning,0828.6,5.00,000.00,028.6,027.0,000.0,037.1,030.2,14.9,0000.0,0002.19,0007.30,0001.62
2023-09-21 12:42:00,SystemResetWarning,0828.6,5.00,000.00,028.6,027.0,000.0,037.1,030.2,14.8,0000.0,0002.16,0007.26,0001.61
2023-09-21 12:43:00,SystemResetWarning,0828.6,5.00,000.00,028.6,027.0,000.0,037.1,030.2,15.0,0000.0,0002.15,0007.29,0001.59
2023-09-21 12:44:00,SystemResetWarning,0828.6,4.99,000.00,028.6,027.0,000.0,037.1,030.2,15.0,0000.0,0002.13,0007.17,0001.58
2023-09-21 12:45:00,SystemResetWarning,0828.6,4.99,000.00,028.6,027.0,000.0,037.1,030.2,15.0,0000.0,0002.10,0006.26,0001.58
2023-09-21 12:46:00,SystemResetWarning,0828.7,4.99,000.00,028.6,027.0,000.0,037.1,030.2,15.0,0000.0,0002.07,0005.75,0001.59
2023-09-21 12:47:00,SystemResetWarning,0828.7,4.99,000.00,028.6,027.0,000.0,037.1,030.1,15.1,0000.0,0002.12,0005.87,0001.61
2023-09-21 12:48:00,SystemResetWarning,0828.7,5.02,000.00,028.6,027.0,000.0,037.1,030.1,15.1,0000.0,0002.14,0006.14,0001.63
2023-09-21 12:49:00,SystemResetWarning,0828.7,5.00,000.00,028.6,027.0,000.0,037.1,030.1,15.3,0000.0,0002.16,0007.09,0001.64
2023-09-21 12:50:00,SystemResetWarning,0828.7,4.99,000.00,028.6,027.0,000.0,037.1,030.2,15.6,0000.0,0002.11,0006.96,0001.65
2023-09-21 12:51:00,SystemResetWarning,0828.7,5.00,000.00,028.6,027.0,000.0,037.1,030.2,15.4,0000.0,0002.11,0006.79,0001.65
2023-09-21 12:52:00,SystemResetWarning,0828.7,4.99,000.00,028.6,027.0,000.0,037.0,030.2,15.4,0000.0,0002.10,0005.47,0001.63
2023-09-21 12:53:00,SystemResetWarning,0828.7,5.00,000.00,028.6,027.0,000.0,037.0,030.2,15.6,0000.0,0002.06,0006.04,0001.62
2023-09-21 12:54:00,SystemResetWarning,0828.7,5.01,000.00,028.6,027.0,000.0,037.0,030.1,15.6,0000.0,0002.02,0006.30,0001.61
2023-09-21 12:55:00,SystemResetWarning,0828.8,5.00,000.00,028.6,027.0,000.0,037.0,030.1,15.6,0000.0,0002.07,0006.42,0001.61
2023-09-21 12:56:00,SystemResetWarning,0828.8,5.00,000.00,028.6,027.0,000.0,037.0,030.1,15.8,0000.0,0002.09,0006.70,0001.60
2023-09-21 12:57:00,SystemResetWarning,0828.8,5.00,000.00,028.5,027.0,000.0,037.0,030.1,15.7,0000.0,0002.04,0007.25,0001.58
2023-09-21 12:58:00,SystemResetWarning,0828.9,4.99,000.00,028.5,027.0,000.0,037.0,030.1,15.7,0000.0,0001.99,0007.27,0001.55
2023-09-21 12:59:00,SystemResetWarning,0829.0,4.99,000.00,028.5,026.9,000.0,037.0,030.1,15.7,0000.0,0001.95,0007.14,0001.52
